VE6TS-4 Weather Reports


time (UTC)temp
C
wind
direction
speed
KPH
gust
KPH
rain 1hr
cm
rain 24hr
cm
rain mn
cm
humidity
%
barometer
mb
20260503032810 -17 270 0.0 0.0 0.00 0.00 0.91 35 1014.9
20260502184906 -17 315 0.0 4.8 0.00 0.00 0.08 39 1020.4
20260502114208 -17 270 0.0 0.0 0.00 0.00 0.13 43 1022.0
20260502110839 -17 270 0.0 0.0 0.00 0.00 0.13 42 1022.0
20260502105155 -17 270 0.0 0.0 0.00 0.00 0.13 43 1022.1
20260502103510 -17 270 0.0 0.0 0.00 0.00 0.13 43 1021.8
20260502100141 -17 270 0.0 0.0 0.00 0.00 0.13 42 1021.7
20260502091127 -17 270 0.0 0.0 0.00 0.00 0.13 41 1021.3
20260502090305 -17 270 0.0 1.6 0.00 0.00 0.13 42 1021.4
20260502071415 -17 270 0.0 0.0 0.00 0.00 0.10 42 1020.5
20260502065730 -17 270 0.0 0.0 0.00 0.00 0.10 42 1020.4
20260502064908 -17 270 0.0 0.0 0.00 0.00 0.10 41 1020.4
20260502064045 -17 270 0.0 0.0 0.00 0.00 0.10 42 1020.4
20260502061539 -17 270 0.0 0.0 0.00 0.00 0.10 42 1020.2
20260502054209 -17 270 0.0 0.0 0.00 0.00 0.08 40 1020.0
20260502053347 -17 270 0.0 0.0 0.00 0.00 0.05 40 1020.1
20260502052525 -17 270 0.0 0.0 0.00 0.00 0.05 39 1020.0
20260502051702 -17 270 0.0 0.0 0.00 0.00 0.05 39 1019.9
20260502050840 -17 270 0.0 0.0 0.00 0.00 0.05 39 1019.9
20260502050018 -17 270 8.0 8.0 0.00 0.00 0.05 39 1019.8